Location: Pel�-Koumbol�
(14.9505°N, 3.0798°W)
Time: 13:53:51
(UTC+00:00)

USA 229 DEB - Visible Passes

Search period start: 10 July 2020 00:00
Search period end: 20 July 2020 00:00
Orbit: 983 x 1229 km, 63.4° (Epoch: 24 June)

Date Brightness Start Highest point End Pass type
(mag) Time Alt. Az. Time Alt. Az. Time Alt. Az.
10 Jul 5.1 20:13:38 10° NW 20:20:31 38° WSW 20:27:29 10° S visible
11 Jul 4.3 19:28:17 10° NNW 19:35:49 67° WSW 19:43:27 10° SSE visible
12 Jul 6.3 20:37:59 10° W 20:41:33 14° WSW 20:45:09 10° SW visible
13 Jul 5.8 19:50:48 10° WNW 19:56:55 27° WSW 20:03:07 10° SSW visible
14 Jul 5.0 19:05:02 10° NW 19:12:16 47° WSW 19:19:34 10° S visible
16 Jul 6.2 19:28:25 10° WNW 19:33:19 18° WSW 19:38:16 10° SSW visible
17 Jul 6.3 05:27:11 10° SE 05:29:15 12° ESE 05:31:19 10° E visible
19 Jul 6.6 19:07:11 10° W 19:09:43 12° WSW 19:12:16 10° SW visible
